Location: ????????
(55.6189°N, 38.3031°E)
Time: 02:55:55
(UTC+00:00)

Cosmos 1328 Rocket - Pass Details

Date: 15 November 2019
Orbit: 600 x 628 km, 82.5° (Epoch: 11 December)

Event Time Altitude Azimuth Distance (km) Brightness Sun altitude
Rises 03:50:51 0° 341° (NNW) 2,891 6.6 -9.7°
Reaches altitude 10° 03:53:20 10° 329° (NNW) 1,976 5.7 -9.4°
Maximum altitude 03:56:59 27° 272° (W) 1,190 4.5 -8.9°
Drops below altitude 10° 04:00:36 10° 215° (SW) 1,951 6.0 -8.4°
Sets 04:03:03 0° 203° (SSW) 2,846 6.9 -8.1°
